User: anonymous   Login
Location: Unspecified
(43.4680°N, 87.1740°E)
Time: 04:52:40
(UTC+00:00)
Language:

CZ-4C R/B - Orbit

View from above orbital plane
View from above orbital plane
View from above satellite
View from above satellite

Ground track
Ground track

The orbit data is extracted from the following two-line orbital elements,

1 36416U 10009D   21171.33562172 -.00000104  00000-0  44747-5 0  9998
2 36416  63.4206 291.5520 0531103 355.6164   4.0315 13.69594711564891
Epoch (UTC): 20 June 2021 08:03:17
Eccentricity: 0.0531103
inclination: 63.4206°
perigee height: 609 km
apogee height: 1393 km
right ascension of ascending node: 291.5520°
argument of perigee: 355.6164°
revolutions per day: 13.69594711
mean anomaly at epoch: 4.0315°
orbit number at epoch: 56489

The dashed part of the orbit path shows where the satellite is in the earth's shadow,  

DLR